Date,TemperatureHighF,TemperatureAvgF,TemperatureLowF,DewpointHighF,DewpointAvgF,DewpointLowF,HumidityHigh,HumidityAvg,HumidityLow,PressureMaxIn,PressureMinIn,WindSpeedMaxMPH,WindSpeedAvgMPH,GustSpeedMaxMPH,PrecipitationSumIn
2013-1-1,35.0,26.7,11.0,27.0,15.8,3.0,81,64,44,29.85,29.60,10,4,20,0.04
2013-1-2,27.0,14.5,5.0,12.0,3.0,-5.0,74,61,41,30.03,29.82,9,3,21,0.01
2013-1-3,25.0,10.7,0.0,7.0,0.1,-7.0,77,63,41,30.07,29.93,5,1,10,0.00
2013-1-4,35.0,25.6,12.0,26.0,18.2,4.0,89,73,65,29.93,29.72,11,4,23,0.00
2013-1-5,38.0,30.6,18.0,26.0,19.0,12.0,81,63,39,30.24,29.73,9,3,20,0.03
2013-1-6,39.0,27.5,17.0,28.0,21.8,12.0,88,79,62,30.20,29.88,6,1,14,0.07
2013-1-7,32.0,26.2,17.0,27.0,20.8,13.0,90,80,61,30.37,29.90,6,1,10,0.03
2013-1-8,41.0,31.8,17.0,30.0,24.3,13.0,93,75,52,30.33,30.17,13,4,22,0.08
2013-1-9,42.0,31.2,18.0,36.0,26.4,16.0,91,82,69,30.38,29.88,9,2,20,0.22
2013-1-10,45.0,38.8,29.0,34.0,27.4,23.0,88,65,49,30.49,29.90,10,4,25,0.36
2013-1-11,40.0,32.7,23.0,37.0,26.3,19.0,90,77,63,30.51,30.22,5,1,10,0.02
2013-1-12,44.0,41.2,39.0,41.0,39.0,37.0,95,92,87,30.22,30.09,4,1,11,0.02
2013-1-13,46.0,42.3,38.0,45.0,40.8,36.0,97,95,92,30.12,29.93,6,2,12,0.01
2013-1-14,59.0,46.4,38.0,51.0,40.0,27.0,97,81,52,30.19,29.81,6,3,17,0.00
2013-1-15,39.0,35.2,31.0,31.0,26.7,24.0,86,71,56,30.29,30.18,3,0,8,0.00
2013-1-16,36.0,32.5,30.0,33.0,28.7,23.0,94,87,66,30.24,29.76,5,1,10,0.49
2013-1-17,40.0,31.6,20.0,35.0,23.3,3.0,93,73,37,30.09,29.75,6,2,16,0.04
2013-1-18,22.0,17.5,12.0,8.0,-1.0,-8.0,58,44,30,30.39,30.06,7,3,14,0.00
2013-1-19,42.0,34.4,20.0,32.0,22.1,8.0,73,60,51,30.35,29.85,12,6,27,0.00
2013-1-20,49.0,40.2,27.0,37.0,27.2,7.0,81,61,34,29.84,29.42,15,8,28,0.00
2013-1-21,29.0,24.1,18.0,15.0,5.3,0.0,71,45,31,30.02,29.81,10,4,22,0.00
2013-1-22,24.0,18.5,11.0,17.0,8.1,-4.0,75,64,46,30.02,29.72,5,2,15,0.00
2013-1-23,11.0,5.8,1.0,-3.0,-10.8,-15.0,58,46,31,30.08,30.01,9,3,20,0.00
2013-1-24,20.0,7.3,-3.0,-5.0,-9.2,-13.0,62,47,29,30.12,29.93,8,3,18,0.00
2013-1-25,24.0,13.5,1.0,5.0,-1.2,-7.0,73,52,36,30.20,30.03,5,1,11,0.00
2013-1-26,25.0,17.7,12.0,5.0,-0.8,-6.0,56,44,27,30.13,29.96,6,2,14,0.00
2013-1-27,30.0,18.1,7.0,6.0,1.5,-4.0,71,49,32,30.41,30.13,6,1,14,0.00
2013-1-28,29.0,21.2,11.0,22.0,10.7,-4.0,90,66,38,30.41,30.04,2,0,8,0.09
2013-1-29,35.0,29.0,23.0,31.0,24.7,20.0,90,84,73,30.18,30.04,3,1,7,0.07
2013-1-30,49.0,42.9,34.0,48.0,41.6,31.0,97,95,88,30.12,29.43,10,4,21,0.15
2013-1-31,51.0,41.7,31.0,50.0,27.8,12.0,97,60,42,29.45,28.84,15,10,34,0.19